Regional Weather Roundup
Issued by NWS Binghamton, NY

Home | Current Version | Previous Version | Text Only | Print | Product List | Glossary On
Versions: 1 2 3 4 5 6 7 8 9 10 11 12 13 14 15 16 17 18 19 20 21 22 23 24 25 26 27
000
ASUS41 KBGM 191510
RWRBGM
RWRBGM
BINGHAMTON REGIONAL WEATHER ROUNDUP
NATIONAL WEATHER SERVICE BINGHAMTON NY
1100 AM EDT SAT APR 19 2014

Note: "fair" indicates few or no clouds below 12,000 feet with no
significant weather and/or obstructions to visibility.

* = Station(s) that does not report precipitation, such as rain,
snow, etc, also no thunder or fog.

!NYZ009-015>018-022>025-036-037-044>046-055>057-062-191600
...CENTRAL NEW YORK...

CITY           SKY/WX    TMP DP  RH WIND       PRES   REMARKS
BINGHAMTON     SUNNY     46  30  53 N12G20    30.34R
CORTLAND       CLOUDY    41  34  75 N9        30.39R
DANSVILLE      PTSUNNY   47  34  60 NW13      30.42S
ELMIRA         SUNNY     48  31  51 NE9       30.39R
ITHACA         CLOUDY    41  33  73 N10       30.40R
HAMILTON       CLOUDY    43  36  75 N10       30.36
MONTICELLO     MOSUNNY   52  28  40 N17       30.30S
NORWICH        MOSUNNY   45  32  61 N14G20    30.36R
ONEONTA        MOSUNNY   43  30  61 NW8       30.32R
PENN YAN       CLOUDY    44  32  62 N9        30.41R
ROME           PTSUNNY   44  36  73 CALM      30.37S
SIDNEY         SUNNY     54  34  47 NE8G20    30.34S
SYRACUSE       CLOUDY    42  35  76 NW12      30.41R
$$

!PAZ038>040-043-044-047-048-072-191600
...NORTHEAST PENNSYLVANIA...

CITY           SKY/WX    TMP DP  RH WIND       PRES   REMARKS
SCRANTON       MOSUNNY   51  29  42 NW13G20   30.33R
TOWANDA*       SUNNY     52  27  37 N10       30.38R
$$
&&
KEY
WCI = WIND CHILL INDEX
VSB = VISIBILITY
HX  = HEAT INDEX
$$



USA.gov is the U.S. government's official web portal to all federal, state and local government web resources and services.